Location: Beuvron
(47.3591°N, 3.4932°E)
Time: 02:39:55
(UTC+00:00)

Daily predictions for brighter satellites

Satellite Brightness Start Highest point End
(mag) Time Altitude Azimuth Time Altitude Azimuth Time Altitude Azimuth
Cosmos 2263 Rocket 4.4 03:01:27 21° ENE 03:01:27 21° ENE 03:03:53 10° NE
ATLAS 3B R/B 3.7 03:30:35 38° NNE 03:31:14 39° NE 03:37:49 10° ESE
Lacrosse 4 Rocket 4.2 03:38:11 15° ESE 03:38:11 15° ESE 03:39:06 10° ESE
ALOS 3.8 03:49:55 10° NNE 03:53:16 34° ENE 03:53:16 34° ENE
NOSS 3-2 (C) 4.0 04:00:07 67° SW 04:00:07 67° SW 04:08:06 10° SSE
NOSS 3-4 (A) 3.6 04:00:50 61° SE 04:01:12 62° ESE 04:07:24 10° NE
NOSS 3-4 (C) 3.7 04:00:54 60° SE 04:01:20 62° ESE 04:07:31 10° NE
CENTAUR R/B 3.1 04:01:35 68° WSW 04:01:38 68° WSW 04:10:23 10° SSE
Cosmos 158 Rocket 4.4 04:10:38 55° ENE 04:10:38 55° ENE 04:15:16 10° SE
SL-4 R/B 4.0 04:15:02 23° NE 04:15:02 23° NE 04:16:38 10° ENE
Cosmos 1151 Rocket 4.4 04:17:01 32° SE 04:17:01 32° SE 04:19:31 10° SSE
Cosmos 1782 4.3 04:16:34 35° ENE 04:16:42 35° ENE 04:20:24 10° SE
ATLAS 2AS CENTAUR R/B 3.2 04:15:30 23° SSW 04:20:47 71° SE 04:28:37 10° NE
Cosmos 1680 Rocket 4.1 04:20:02 41° N 04:21:36 56° ENE 04:26:50 10° SE
Cosmos 2297 Rocket 4.5 04:30:30 11° N 04:30:30 11° N 04:30:56 10° N
Atlas Centaur 2 4.5 04:26:41 13° SSW 04:28:36 15° S 04:31:48 10° SE
ATLAS 5 CENTAUR R/B 3.9 04:31:19 19° NNE 04:31:19 19° NNE 04:32:06 10° NNE
RESURS DK-1 4.2 04:27:56 10° S 04:31:35 30° ESE 04:35:15 10° NE
ATLAS CENTAUR R/B 2.5 04:32:06 36° NE 04:32:06 36° NE 04:35:31 10° ESE
Lacrosse 5 2.0 04:32:03 60° S 04:32:42 68° SE 04:37:45 10° NE
ADEOS 3.6 04:28:58 10° NNE 04:34:14 79° ESE 04:39:27 10° SSW
Cosmos 1328 Rocket 3.6 04:35:39 74° SE 04:35:39 74° SE 04:39:47 10° SSE
Cosmos 2112 Rocket 4.2 04:38:53 32° N 04:41:25 70° ENE 04:46:45 10° SSE
Cosmos 2263 Rocket 2.4 04:43:11 51° NW 04:43:11 51° NW 04:48:21 10° NNE
Gbstr 26 Del rocket 3.1 04:43:34 58° ESE 04:43:34 58° ESE 04:46:44 10° ESE
SJ 16-02 1.5 04:45:52 61° N 04:45:52 61° N 04:49:38 10° NNE
Cosmos 1898 Rocket 4.1 04:47:30 10° S 04:52:43 59° ESE 04:57:58 10° NNE
Meteor 1-26 Rocket 4.1 04:48:59 21° NNW 04:52:58 72° W 04:58:33 10° S
FALCON 9 DEB 3.6 04:56:35 53° ESE 04:56:35 53° ESE 04:59:20 10° ENE
FALCON 9 DEB 3.6 04:56:45 54° E 04:56:45 54° E 04:59:27 10° ENE
Cosmos 1766 Rocket 4.5 04:58:03 34° NNW 04:58:03 34° NNW 05:00:45 10° N
FENGYUN 3A 3.6 04:53:46 10° N 04:59:06 59° WNW 05:04:23 10° SSW
Cosmos 1408 Rocket 3.5 04:57:50 10° S 05:02:18 87° W 05:06:47 10° N
Cosmos 2181 Rocket 3.9 04:58:00 10° NNW 05:04:06 61° W 05:10:07 10° S
USA 307 3.9 05:05:08 32° NNW 05:05:48 34° N 05:09:45 10° ENE
COSMO-SKYMED 1 2.4 05:01:31 10° S 05:05:51 75° WSW 05:08:00 29° NNW
Cosmos 1709 Rocket 4.2 05:01:02 10° SSW 05:07:07 46° WNW 05:13:16 10° N
Cosmos 1937 Rocket 4.0 05:04:45 10° S 05:09:47 60° ESE 05:14:55 10° NNE
USA 308 3.9 05:11:14 30° NNW 05:12:11 34° N 05:16:09 10° ENE
Lacrosse 4 Rocket 2.8 05:14:32 25° SW 05:14:32 25° SW 05:17:15 10° S
Meteor 2-3 Rocket 3.8 05:08:47 10° SSW 05:14:23 53° WNW 05:20:04 10° N
CZ-4C R/B 2.0 05:11:05 14° SW 05:15:24 89° NW 05:21:27 10° NE
MOS 1 Rocket 3.9 05:11:32 10° SSE 05:16:16 62° ENE 05:21:22 10° N
Cosmos 1943 4.4 05:17:53 23° WSW 05:17:53 23° WSW 05:21:18 10° SSW
CZ-4B R/B 3.0 05:13:13 10° NNE 05:17:45 85° WNW 05:22:09 10° SSW
Cosmos 1689 Rocket 2.5 05:16:01 10° S 05:18:12 45° SSW 05:18:12 45° SSW
FALCON 9 DEB 2.8 05:18:33 64° WSW 05:18:58 89° NNW 05:22:12 10° ENE
Meteor 1-10 Rocket 4.4 05:14:56 10° N 05:20:31 72° ENE 05:26:07 10° SSE
ATLAS 3B R/B 2.7 05:17:52 23° NW 05:22:23 67° WSW 05:29:31 10° SSE
SAR-Lupe-4 3.9 05:19:18 10° S 05:22:38 42° WSW 05:22:38 42° WSW
Aureole 2 Rocket 3.6 05:21:26 10° S 05:23:44 31° ESE 05:26:04 10° NE
Cosmos 1862 3.5 05:23:01 10° S 05:27:03 77° E 05:31:08 10° NNE
Genesis I 3.0 05:24:54 14° SW 05:28:09 86° NW 05:32:02 10° NE
YAOGAN 6 4.0 05:25:05 10° NNE 05:28:25 40° E 05:31:43 10° S
deb Chang Zheng 4 3.9 05:27:24 10° N 05:31:28 40° WNW 05:35:32 10° SW
ALOS 3.1 05:27:36 10° N 05:31:34 28° WNW 05:31:45 28° WNW
Cosmos 858 Rocket 4.4 05:28:51 10° SSW 05:34:03 88° WNW 05:39:22 10° NNE
Cosmos 990 Rocket 4.0 05:30:17 10° SW 05:35:26 56° WNW 05:40:39 10° NNE
Cosmos 2074 Rocket 3.9 05:30:50 10° SSW 05:36:59 67° WNW 05:43:12 10° N
PSLV R/B 4.0 05:33:26 10° NNE 05:37:19 70° ESE 05:41:04 10° S
ASTRO F (AKARI) 4.1 05:36:11 10° NNE 05:39:17 86° WNW 05:42:25 10° SSW
USA 305 3.8 05:38:55 22° NW 05:41:11 38° NNE 05:45:13 10° E
Meteor 1-31 Rocket 3.9 05:38:02 10° N 05:40:29 23° NW 05:40:29 23° NW
BREEZE M DEB (TANK) 3.8 05:33:48 10° SW 05:41:39 44° SSE 05:44:28 10° E
Cosmos 405 Rocket 2.5 05:39:11 10° SSW 05:42:52 80° W 05:46:39 10° N
Cosmos 1812 2.7 05:43:11 10° NNW 05:46:59 59° W 05:50:46 10° S
EO 1 Delta rocket 3.9 05:42:10 10° S 05:47:08 59° W 05:51:43 10° NNW
Cosmos 2228 Rocket 3.0 05:45:08 10° NNW 05:49:31 61° W 05:53:50 10° S
USA 306 3.8 05:47:01 19° NW 05:49:39 40° NNE 05:53:44 10° E
Cosmos 1515 Rocket 4.4 05:46:48 14° NW 05:49:55 31° W 05:53:49 10° SSW
CENTAUR R/B 4.4 05:48:50 16° W 05:51:19 18° WSW 05:56:42 10° SW
NOSS 3-4 (A) 4.1 05:48:19 17° W 05:52:28 36° NNW 05:58:26 10° NNE
NOSS 3-4 (C) 4.1 05:48:24 16° W 05:52:35 36° NNW 05:58:34 10° NNE
Cosmos 1782 4.1 05:52:15 20° WNW 05:52:47 21° W 05:55:48 10° SW
SL-4 R/B 2.4 05:50:37 21° WNW 05:52:52 44° N 05:56:23 10° E
Cosmos 2184 Rocket 4.2 05:48:26 10° SSW 05:54:35 52° WNW 06:00:49 10° N
USA-17 4.3 05:51:37 10° SW 05:55:12 59° NW 05:58:17 10° NNE
USA 234 3.9 05:52:05 10° ENE 05:58:32 58° SE 06:04:57 10° SW
FALCON 9 DEB 3.3 05:56:59 20° W 05:58:53 47° NNW 06:02:01 10° NE
Spot 2 4.4 05:54:29 10° NNE 05:59:40 79° WNW 06:04:43 10° SSW
Cosmos 1844 Rocket 2.8 05:55:34 10° SW 06:01:07 56° WNW 06:06:43 10° NNE
FALCON 9 DEB 4.0 05:59:52 17° NW 06:02:11 39° NNE 06:05:28 10° E
Cosmos 1707 Rocket 3.7 06:02:13 10° N 06:06:34 79° E 06:10:53 10° SSE
EXPRESS MD2 4.0 06:03:36 16° WNW 06:06:47 87° SSW 06:14:41 10° ESE
MOS 1-B 4.4 06:02:44 10° NNE 06:08:36 90° W 06:14:25 10° SSW
COSMOS 2455 3.0 06:03:11 10° SSW 06:09:13 85° ESE 06:15:17 10° NE
RESURS DK-1 3.1 06:05:51 10° WSW 06:09:35 31° NW 06:13:20 10° NNE
BREEZE-M (TANK) 4.5 06:03:37 10° SW 06:10:15 33° SSE 06:12:52 10° E
ATLAS CENTAUR R/B 2.4 06:08:18 15° WNW 06:10:39 25° WSW 06:13:55 10° S
BREEZE-M DEB 4.2 06:02:56 13° WNW 06:11:07 43° SW 06:14:16 10° SSE
NOAA 6 4.0 06:06:36 10° NNE 06:11:44 76° WNW 06:16:50 10° SSW
ATLAS 2AS CENTAUR R/B 3.4 06:04:53 10° WSW 06:12:21 42° NW 06:19:39 10° NE
ERBS 4.3 06:11:05 11° NW 06:12:53 16° N 06:15:00 10° NE
Cosmos 1500 Rocket 4.2 06:10:26 10° SW 06:14:17 31° WNW 06:18:09 10° N
H-2A R/B 3.4 06:10:44 10° N 06:14:18 34° WNW 06:17:49 10° SW
Cosmos 1844 3.8 06:09:36 10° SW 06:15:02 54° WNW 06:20:31 10° NNE
Lacrosse 5 2.5 06:11:18 10° W 06:15:59 39° NNW 06:20:45 10° NE
Atlas Centaur 2 4.5 06:14:17 10° SW 06:16:28 12° SSW 06:18:29 10° S
CZ-4B DEB 4.2 06:11:26 10° N 06:16:53 69° WNW 06:22:18 10° SSW
Cosmos 1437 Rocket 3.0 06:13:31 10° NNW 06:17:07 43° W 06:20:41 10° SSW
Cosmos 372 Rocket 3.9 06:13:24 10° SSW 06:18:28 71° WNW 06:23:35 10° NNE
Okean O Rocket 1.8 06:16:00 10° NNE 06:20:29 80° ESE 06:24:56 10° S
Geosat 4.2 06:17:07 10° SE 06:22:08 74° ENE 06:27:10 10° NNW
Cosmos 1242 Rocket 3.7 06:18:37 10° N 06:22:09 46° ENE 06:25:41 10° SSE
PAYLOAD B 4.2 06:17:48 10° NNE 06:23:20 74° WNW 06:28:48 10° SSW
SMAP 3.0 06:19:30 10° NNE 06:24:11 84° WNW 06:28:50 10° SSW
SJ 16-02 3.2 06:22:59 10° WNW 06:24:33 12° NW 06:26:08 10° NNW
USA 81 4.1 06:19:19 10° S 06:24:35 85° W 06:29:54 10° N
Cosmos 2263 Rocket 3.9 06:25:19 10° WNW 06:28:06 14° NW 06:30:53 10° N
ATLAS 5 CENTAUR R/B 2.3 06:27:36 10° SSW 06:31:34 57° SE 06:36:02 10° NE
FALCON 9 DEB 3.7 06:29:20 10° W 06:32:20 35° NNW 06:35:22 10° NE
FALCON 9 DEB 3.8 06:29:25 10° W 06:32:25 35° NNW 06:35:26 10° NE
Sich 1 3.3 06:30:36 10° SSW 06:34:53 48° WNW 06:39:12 10° N
Cosmos 2218 Rocket 4.2 06:28:44 10° S 06:35:00 80° E 06:41:14 10° N
CZ-2C R/B 2.7 06:30:27 10° S 06:35:54 67° WSW 06:41:17 10° NNW
AQUARIUS 4.1 06:33:26 10° N 06:37:55 68° WNW 06:42:22 10° SSW
H-2A R/B 2.8 06:34:46 10° N 06:38:20 36° WNW 06:41:49 10° SW
Envisat 3.4 06:33:41 10° N 06:38:26 41° WNW 06:43:11 10° SW
Cosmos 2366 rocket 4.2 06:33:03 10° S 06:39:23 82° E 06:45:41 10° N
